Time,TemperatureF,DewpointF,PressureIn,WindDirection,WindDirectionDegrees,WindSpeedMPH,WindSpeedGustMPH,Humidity,HourlyPrecipIn,Conditions,Clouds,dailyrainin,SoftwareType,DateUTC
2013-01-08 11:55:00,35.0,-99.9,0.00,West,274,8.0,9.0,-999,0.00,,,-99.99,,2013-01-08 17:55:00,
2013-01-08 12:00:00,35.0,-99.9,0.00,West,276,9.0,10.0,-999,0.00,,,-99.99,,2013-01-08 18:00:00,
2013-01-08 12:05:00,36.0,-99.9,0.00,West,276,9.0,10.0,-999,0.00,,,-99.99,,2013-01-08 18:05:00,
2013-01-08 12:10:00,37.0,-99.9,0.00,West,269,9.0,10.0,-999,0.00,,,-99.99,,2013-01-08 18:10:00,
2013-01-08 12:15:00,38.0,-99.9,0.00,West,264,10.0,11.0,-999,0.00,,,-99.99,,2013-01-08 18:15:00,
2013-01-08 12:20:00,38.0,-99.9,0.00,West,279,8.0,10.0,-999,0.00,,,-99.99,,2013-01-08 18:20:00,
2013-01-08 12:25:00,38.0,-99.9,0.00,WNW,298,9.0,10.0,-999,0.00,,,-99.99,,2013-01-08 18:25:00,
2013-01-08 12:35:00,40.0,-99.9,0.00,West,281,8.0,10.0,-999,0.00,,,-99.99,,2013-01-08 18:35:00,
2013-01-08 12:40:00,40.0,-99.9,0.00,WNW,288,11.0,12.0,-999,0.00,,,-99.99,,2013-01-08 18:40:00,
2013-01-08 12:45:00,40.0,-99.9,0.00,West,278,10.0,13.0,-999,0.00,,,-99.99,,2013-01-08 18:45:00,
2013-01-08 12:50:00,41.0,-99.9,0.00,WNW,283,12.0,14.0,-999,0.00,,,-99.99,,2013-01-08 18:50:00,
2013-01-08 12:55:00,41.0,-99.9,0.00,WNW,286,12.0,13.0,-999,0.00,,,-99.99,,2013-01-08 18:55:00,
2013-01-08 13:05:00,41.0,-99.9,0.00,WNW,285,14.0,15.0,-999,0.00,,,-99.99,,2013-01-08 19:05:00,
2013-01-08 13:10:00,41.0,-99.9,0.00,WNW,292,13.0,15.0,-999,0.00,,,-99.99,,2013-01-08 19:10:00,
2013-01-08 13:15:00,42.0,-99.9,0.00,WNW,288,13.0,14.0,-999,0.00,,,-99.99,,2013-01-08 19:15:00,
2013-01-08 13:20:00,42.0,-99.9,0.00,WNW,303,13.0,15.0,-999,0.00,,,-99.99,,2013-01-08 19:20:00,
2013-01-08 13:25:00,42.0,-99.9,0.00,West,275,13.0,15.0,-999,0.00,,,-99.99,,2013-01-08 19:25:00,
2013-01-08 13:30:00,42.0,-99.9,0.00,WNW,299,13.0,15.0,-999,0.00,,,-99.99,,2013-01-08 19:30:00,
2013-01-08 13:35:00,42.0,-99.9,0.00,WNW,296,13.0,15.0,-999,0.00,,,-99.99,,2013-01-08 19:35:00,
2013-01-08 13:45:00,43.0,-99.9,0.00,WNW,300,15.0,16.0,-999,0.00,,,-99.99,,2013-01-08 19:45:00,
2013-01-08 13:50:00,43.0,-99.9,0.00,WNW,290,13.0,15.0,-999,0.00,,,-99.99,,2013-01-08 19:50:00,
2013-01-08 13:55:00,42.0,-99.9,0.00,WNW,288,12.0,14.0,-999,0.00,,,-99.99,,2013-01-08 19:55:00,
2013-01-08 14:00:00,42.0,-99.9,0.00,WNW,292,11.0,13.0,-999,0.00,,,-99.99,,2013-01-08 20:00:00,
2013-01-08 14:05:00,42.0,-99.9,0.00,WNW,292,13.0,14.0,-999,0.00,,,-99.99,,2013-01-08 20:05:00,
2013-01-08 14:10:00,42.0,-99.9,0.00,WNW,282,13.0,14.0,-999,0.00,,,-99.99,,2013-01-08 20:10:00,
2013-01-08 14:15:00,42.0,-99.9,0.00,WNW,293,12.0,14.0,-999,0.00,,,-99.99,,2013-01-08 20:15:00,
2013-01-08 14:20:00,42.0,-99.9,0.00,WNW,285,13.0,15.0,-999,0.00,,,-99.99,,2013-01-08 20:20:00,
2013-01-08 14:25:00,41.0,-99.9,0.00,West,276,14.0,16.0,-999,0.00,,,-99.99,,2013-01-08 20:25:00,
2013-01-08 14:35:00,42.0,-99.9,0.00,West,271,11.0,14.0,-999,0.00,,,-99.99,,2013-01-08 20:35:00,
2013-01-08 14:40:00,41.0,-99.9,0.00,West,281,12.0,13.0,-999,0.00,,,-99.99,,2013-01-08 20:40:00,
2013-01-08 14:45:00,42.0,-99.9,0.00,West,278,11.0,13.0,-999,0.00,,,-99.99,,2013-01-08 20:45:00,
2013-01-08 14:50:00,42.0,-99.9,0.00,West,265,13.0,14.0,-999,0.00,,,-99.99,,2013-01-08 20:50:00,
2013-01-08 14:55:00,41.0,-99.9,0.00,WNW,288,11.0,12.0,-999,0.00,,,-99.99,,2013-01-08 20:55:00,
2013-01-08 15:00:00,41.0,-99.9,0.00,WNW,282,10.0,12.0,-999,0.00,,,-99.99,,2013-01-08 21:00:00,
2013-01-08 15:05:00,41.0,-99.9,0.00,WNW,289,10.0,11.0,-999,0.00,,,-99.99,,2013-01-08 21:05:00,
2013-01-08 15:10:00,42.0,-99.9,0.00,West,279,10.0,12.0,-999,0.00,,,-99.99,,2013-01-08 21:10:00,
2013-01-08 15:15:00,42.0,-99.9,0.00,West,279,11.0,13.0,-999,0.00,,,-99.99,,2013-01-08 21:15:00,
2013-01-08 15:20:00,41.0,-99.9,0.00,WNW,282,11.0,12.0,-999,0.00,,,-99.99,,2013-01-08 21:20:00,
2013-01-08 15:25:00,42.0,-99.9,0.00,WNW,288,11.0,12.0,-999,0.00,,,-99.99,,2013-01-08 21:25:00,
2013-01-08 15:30:00,42.0,-99.9,0.00,WNW,286,9.0,10.0,-999,0.00,,,-99.99,,2013-01-08 21:30:00,
2013-01-08 15:35:00,42.0,-99.9,0.00,West,281,10.0,11.0,-999,0.00,,,-99.99,,2013-01-08 21:35:00,
2013-01-08 15:40:00,42.0,-99.9,0.00,WNW,289,9.0,11.0,-999,0.00,,,-99.99,,2013-01-08 21:40:00,
2013-01-08 15:45:00,41.0,-99.9,0.00,WNW,298,8.0,10.0,-999,0.00,,,-99.99,,2013-01-08 21:45:00,
2013-01-08 15:50:00,42.0,-99.9,0.00,WNW,289,9.0,11.0,-999,0.00,,,-99.99,,2013-01-08 21:50:00,
2013-01-08 15:55:00,42.0,-99.9,0.00,WSW,252,9.0,10.0,-999,0.00,,,-99.99,,2013-01-08 21:55:00,
2013-01-08 16:00:00,42.0,-99.9,0.00,WNW,290,9.0,10.0,-999,0.00,,,-99.99,,2013-01-08 22:00:00,
2013-01-08 16:05:00,41.0,-99.9,0.00,WNW,300,9.0,10.0,-999,0.00,,,-99.99,,2013-01-08 22:05:00,
2013-01-08 16:10:00,42.0,-99.9,0.00,WNW,286,9.0,11.0,-999,0.00,,,-99.99,,2013-01-08 22:10:00,
2013-01-08 16:15:00,42.0,-99.9,0.00,West,271,9.0,11.0,-999,0.00,,,-99.99,,2013-01-08 22:15:00,
2013-01-08 16:20:00,42.0,-99.9,0.00,WNW,288,10.0,11.0,-999,0.00,,,-99.99,,2013-01-08 22:20:00,
2013-01-08 16:25:00,42.0,-99.9,0.00,WNW,288,10.0,11.0,-999,0.00,,,-99.99,,2013-01-08 22:25:00,
2013-01-08 16:30:00,42.0,-99.9,0.00,WNW,286,10.0,12.0,-999,0.00,,,-99.99,,2013-01-08 22:30:00,
2013-01-08 16:35:00,42.0,-99.9,0.00,West,276,10.0,12.0,-999,0.00,,,-99.99,,2013-01-08 22:35:00,
2013-01-08 16:40:00,43.0,-99.9,0.00,West,281,11.0,14.0,-999,0.00,,,-99.99,,2013-01-08 22:40:00,
2013-01-08 16:45:00,42.0,-99.9,0.00,West,274,10.0,12.0,-999,0.00,,,-99.99,,2013-01-08 22:45:00,
2013-01-08 16:50:00,42.0,-99.9,0.00,West,281,10.0,11.0,-999,0.00,,,-99.99,,2013-01-08 22:50:00,
2013-01-08 16:55:00,42.0,-99.9,0.00,WNW,285,11.0,13.0,-999,0.00,,,-99.99,,2013-01-08 22:55:00,
2013-01-08 17:00:00,42.0,-99.9,0.00,WNW,295,10.0,13.0,-999,0.00,,,-99.99,,2013-01-08 23:00:00,
2013-01-08 17:05:00,42.0,-99.9,0.00,WNW,282,10.0,12.0,-999,0.00,,,-99.99,,2013-01-08 23:05:00,
2013-01-08 17:10:00,42.0,-99.9,0.00,West,279,10.0,12.0,-999,0.00,,,-99.99,,2013-01-08 23:10:00,
2013-01-08 17:15:00,41.0,-99.9,0.00,West,276,10.0,11.0,-999,0.00,,,-99.99,,2013-01-08 23:15:00,
2013-01-08 17:20:00,41.0,-99.9,0.00,WNW,283,8.0,9.0,-999,0.00,,,-99.99,,2013-01-08 23:20:00,
2013-01-08 17:25:00,40.0,-99.9,0.00,West,276,9.0,10.0,-999,0.00,,,-99.99,,2013-01-08 23:25:00,
2013-01-08 17:30:00,40.0,-99.9,0.00,West,271,9.0,10.0,-999,0.00,,,-99.99,,2013-01-08 23:30:00,
2013-01-08 17:35:00,40.0,-99.9,0.00,WSW,258,9.0,10.0,-999,0.00,,,-99.99,,2013-01-08 23:35:00,
2013-01-08 17:40:00,40.0,-99.9,0.00,West,259,9.0,10.0,-999,0.00,,,-99.99,,2013-01-08 23:40:00,
2013-01-08 17:45:00,40.0,-99.9,0.00,West,269,10.0,11.0,-999,0.00,,,-99.99,,2013-01-08 23:45:00,
2013-01-08 17:50:00,39.0,-99.9,0.00,West,262,9.0,11.0,-999,0.00,,,-99.99,,2013-01-08 23:50:00,
2013-01-08 17:55:00,40.0,-99.9,0.00,West,275,8.0,10.0,-999,0.00,,,-99.99,,2013-01-08 23:55:00,
2013-01-08 18:00:00,40.0,-99.9,0.00,West,264,9.0,10.0,-999,0.00,,,-99.99,,2013-01-09 00:00:00,
2013-01-08 18:05:00,39.0,-99.9,0.00,West,259,9.0,10.0,-999,0.00,,,-99.99,,2013-01-09 00:05:00,
2013-01-08 18:10:00,40.0,-99.9,0.00,West,259,9.0,10.0,-999,0.00,,,-99.99,,2013-01-09 00:10:00,
2013-01-08 18:15:00,39.0,-99.9,0.00,West,274,10.0,11.0,-999,0.00,,,-99.99,,2013-01-09 00:15:00,
2013-01-08 18:20:00,39.0,-99.9,0.00,West,259,10.0,11.0,-999,0.00,,,-99.99,,2013-01-09 00:20:00,
2013-01-08 18:25:00,39.0,-99.9,0.00,West,269,10.0,11.0,-999,0.00,,,-99.99,,2013-01-09 00:25:00,
2013-01-08 18:30:00,39.0,-99.9,0.00,West,265,9.0,10.0,-999,0.00,,,-99.99,,2013-01-09 00:30:00,
2013-01-08 18:35:00,39.0,-99.9,0.00,WSW,254,9.0,10.0,-999,0.00,,,-99.99,,2013-01-09 00:35:00,
2013-01-08 18:40:00,39.0,-99.9,0.00,West,262,9.0,10.0,-999,0.00,,,-99.99,,2013-01-09 00:40:00,
2013-01-08 18:45:00,39.0,-99.9,0.00,West,259,9.0,10.0,-999,0.00,,,-99.99,,2013-01-09 00:45:00,
2013-01-08 18:50:00,39.0,-99.9,0.00,West,269,8.0,9.0,-999,0.00,,,-99.99,,2013-01-09 00:50:00,
2013-01-08 18:55:00,39.0,-99.9,0.00,West,262,8.0,8.0,-999,0.00,,,-99.99,,2013-01-09 00:55:00,
2013-01-08 19:00:00,39.0,-99.9,0.00,WSW,252,8.0,8.0,-999,0.00,,,-99.99,,2013-01-09 01:00:00,
2013-01-08 19:05:00,40.0,-99.9,0.00,West,265,8.0,9.0,-999,0.00,,,-99.99,,2013-01-09 01:05:00,
2013-01-08 19:10:00,40.0,-99.9,0.00,West,276,8.0,9.0,-999,0.00,,,-99.99,,2013-01-09 01:10:00,
2013-01-08 19:15:00,40.0,-99.9,0.00,West,264,9.0,10.0,-999,0.00,,,-99.99,,2013-01-09 01:15:00,
2013-01-08 19:25:00,39.0,-99.9,0.00,West,264,9.0,10.0,-999,0.00,,,-99.99,,2013-01-09 01:25:00,
2013-01-08 19:30:00,39.0,-99.9,0.00,West,272,9.0,10.0,-999,0.00,,,-99.99,,2013-01-09 01:30:00,
2013-01-08 19:35:00,39.0,-99.9,0.00,West,271,9.0,10.0,-999,0.00,,,-99.99,,2013-01-09 01:35:00,
2013-01-08 19:40:00,39.0,-99.9,0.00,West,278,8.0,9.0,-999,0.00,,,-99.99,,2013-01-09 01:40:00,
2013-01-08 19:45:00,39.0,-99.9,0.00,West,272,8.0,9.0,-999,0.00,,,-99.99,,2013-01-09 01:45:00,
2013-01-08 19:50:00,38.0,-99.9,0.00,WSW,257,8.0,9.0,-999,0.00,,,-99.99,,2013-01-09 01:50:00,
2013-01-08 19:55:00,38.0,-99.9,0.00,West,269,8.0,8.0,-999,0.00,,,-99.99,,2013-01-09 01:55:00,
2013-01-08 20:00:00,38.0,-99.9,0.00,West,266,8.0,9.0,-999,0.00,,,-99.99,,2013-01-09 02:00:00,
2013-01-08 20:05:00,39.0,-99.9,0.00,West,272,9.0,9.0,-999,0.00,,,-99.99,,2013-01-09 02:05:00,
2013-01-08 20:10:00,39.0,-99.9,0.00,WSW,251,9.0,10.0,-999,0.00,,,-99.99,,2013-01-09 02:10:00,
2013-01-08 20:15:00,39.0,-99.9,0.00,WSW,254,9.0,10.0,-999,0.00,,,-99.99,,2013-01-09 02:15:00,
2013-01-08 20:20:00,39.0,-99.9,0.00,West,262,9.0,10.0,-999,0.00,,,-99.99,,2013-01-09 02:20:00,
2013-01-08 20:25:00,39.0,-99.9,0.00,West,268,9.0,10.0,-999,0.00,,,-99.99,,2013-01-09 02:25:00,
2013-01-08 20:30:00,39.0,-99.9,0.00,West,264,9.0,10.0,-999,0.00,,,-99.99,,2013-01-09 02:30:00,
2013-01-08 20:35:00,38.0,-99.9,0.00,West,262,8.0,9.0,-999,0.00,,,-99.99,,2013-01-09 02:35:00,
2013-01-08 20:40:00,38.0,-99.9,0.00,WSW,247,8.0,8.0,-999,0.00,,,-99.99,,2013-01-09 02:40:00,
2013-01-08 20:45:00,38.0,-99.9,0.00,WSW,255,9.0,10.0,-999,0.00,,,-99.99,,2013-01-09 02:45:00,
2013-01-08 20:50:00,38.0,-99.9,0.00,West,268,9.0,9.0,-999,0.00,,,-99.99,,2013-01-09 02:50:00,
2013-01-08 20:55:00,38.0,-99.9,0.00,West,259,9.0,9.0,-999,0.00,,,-99.99,,2013-01-09 02:55:00,
2013-01-08 21:00:00,38.0,-99.9,0.00,West,259,9.0,10.0,-999,0.00,,,-99.99,,2013-01-09 03:00:00,
2013-01-08 21:05:00,38.0,-99.9,0.00,West,265,9.0,10.0,-999,0.00,,,-99.99,,2013-01-09 03:05:00,
2013-01-08 21:10:00,38.0,-99.9,0.00,West,261,9.0,10.0,-999,0.00,,,-99.99,,2013-01-09 03:10:00,
2013-01-08 21:15:00,38.0,-99.9,0.00,West,259,9.0,10.0,-999,0.00,,,-99.99,,2013-01-09 03:15:00,
2013-01-08 21:25:00,38.0,-99.9,0.00,West,265,8.0,9.0,-999,0.00,,,-99.99,,2013-01-09 03:25:00,
2013-01-08 21:30:00,37.0,-99.9,0.00,West,265,9.0,10.0,-999,0.00,,,-99.99,,2013-01-09 03:30:00,
2013-01-08 21:35:00,37.0,-99.9,0.00,West,268,9.0,9.0,-999,0.00,,,-99.99,,2013-01-09 03:35:00,
2013-01-08 21:40:00,36.0,-99.9,0.00,West,266,8.0,9.0,-999,0.00,,,-99.99,,2013-01-09 03:40:00,
2013-01-08 21:45:00,38.0,-99.9,0.00,West,276,8.0,9.0,-999,0.00,,,-99.99,,2013-01-09 03:45:00,
2013-01-08 21:50:00,38.0,-99.9,0.00,West,272,8.0,9.0,-999,0.00,,,-99.99,,2013-01-09 03:50:00,
2013-01-08 21:55:00,38.0,-99.9,0.00,West,274,8.0,9.0,-999,0.00,,,-99.99,,2013-01-09 03:55:00,
2013-01-08 22:00:00,38.0,-99.9,0.00,West,268,8.0,10.0,-999,0.00,,,-99.99,,2013-01-09 04:00:00,
2013-01-08 22:05:00,37.0,-99.9,0.00,West,264,8.0,9.0,-999,0.00,,,-99.99,,2013-01-09 04:05:00,
2013-01-08 22:10:00,36.0,-99.9,0.00,West,276,9.0,10.0,-999,0.00,,,-99.99,,2013-01-09 04:10:00,
2013-01-08 22:15:00,36.0,-99.9,0.00,West,272,9.0,10.0,-999,0.00,,,-99.99,,2013-01-09 04:15:00,
2013-01-08 22:20:00,36.0,-99.9,0.00,West,268,9.0,10.0,-999,0.00,,,-99.99,,2013-01-09 04:20:00,
2013-01-08 22:30:00,36.0,-99.9,0.00,West,265,9.0,9.0,-999,0.00,,,-99.99,,2013-01-09 04:30:00,
2013-01-08 22:35:00,35.0,-99.9,0.00,West,268,8.0,9.0,-999,0.00,,,-99.99,,2013-01-09 04:35:00,
2013-01-08 22:40:00,35.0,-99.9,0.00,West,265,9.0,9.0,-999,0.00,,,-99.99,,2013-01-09 04:40:00,
2013-01-08 22:45:00,36.0,-99.9,0.00,West,268,9.0,10.0,-999,0.00,,,-99.99,,2013-01-09 04:45:00,
2013-01-08 22:55:00,35.0,-99.9,0.00,West,262,9.0,10.0,-999,0.00,,,-99.99,,2013-01-09 04:55:00,
2013-01-08 23:05:00,35.0,-99.9,0.00,West,261,9.0,10.0,-999,0.00,,,-99.99,,2013-01-09 05:05:00,
2013-01-08 23:10:00,35.0,-99.9,0.00,West,278,9.0,10.0,-999,0.00,,,-99.99,,2013-01-09 05:10:00,
2013-01-08 23:15:00,35.0,-99.9,0.00,West,281,8.0,9.0,-999,0.00,,,-99.99,,2013-01-09 05:15:00,
2013-01-08 23:20:00,35.0,-99.9,0.00,West,271,8.0,9.0,-999,0.00,,,-99.99,,2013-01-09 05:20:00,
2013-01-08 23:25:00,35.0,-99.9,0.00,West,281,8.0,9.0,-999,0.00,,,-99.99,,2013-01-09 05:25:00,
2013-01-08 23:30:00,35.0,-99.9,0.00,West,271,8.0,9.0,-999,0.00,,,-99.99,,2013-01-09 05:30:00,
2013-01-08 23:35:00,35.0,-99.9,0.00,West,266,8.0,9.0,-999,0.00,,,-99.99,,2013-01-09 05:35:00,
2013-01-08 23:40:00,35.0,-99.9,0.00,WSW,250,9.0,10.0,-999,0.00,,,-99.99,,2013-01-09 05:40:00,
2013-01-08 23:45:00,35.0,-99.9,0.00,West,274,9.0,9.0,-999,0.00,,,-99.99,,2013-01-09 05:45:00,
2013-01-08 23:50:00,35.0,-99.9,0.00,West,265,8.0,10.0,-999,0.00,,,-99.99,,2013-01-09 05:50:00,
2013-01-08 23:55:00,35.0,-99.9,0.00,West,268,8.0,10.0,-999,0.00,,,-99.99,,2013-01-09 05:55:00,